Weather History for Montevideo, MN

Change the Weather History Date:

Saturday, August 17, 2013

  Actual Average Record
Temperature  
Mean Temperature 68 °F -  
Max Temperature 78 °F 83 °F 103 °F (1988)
Min Temperature 57 °F 59 °F 44 °F (1981)
Cooling Degree Days 2    
Growing Degree Days 18 (Base 50)    
Moisture  
Dew Point 60 °F    
Average Humidity 76    
Maximum Humidity 100    
Minimum Humidity 57    
Precipitation  
Precipitation 0.00 in - - ()
Sea Level Pressure  
Sea Level Pressure 30.13 in    
Wind  
Wind Speed 7 mph (SSW)    
Max Wind Speed 15 mph    
Max Gust Speed 22 mph    
Visibility 10 miles    
Events      
Averages and records for this station are not official NWS values.
T = Trace of Precipitation, MM = Missing Value Source: NWS Daily Summary

Daily Weather History Graph

Daily Weather History Graph

Search for Another Location

Airport:

Trip Planner

Search our weather history database for the weather conditions in past years. The results will help you decide how hot, cold, wet, or windy it might be!

Date:

Astronomy

Aug. 17, 2013 Rise Set
Actual Time 6:27 AM CDT 8:25 PM CDT
Civil Twilight 5:55 AM CDT 8:57 PM CDT
Nautical Twilight 5:16 AM CDT 9:35 PM CDT
Astronomical Twilight 4:33 AM CDT 10:18 PM CDT
Moon 5:46 PM CDT (8/17) 2:26 AM CDT (8/17)
Length of Visible Light 15h 01m
Length of Day
13h 58m
Waxing Gibbous, 84% of the Moon is Illuminated
Aug 17
Waxing Gibbous
Aug 20
Full
Aug 28
Last Quarter
Sep 5
New
Sep 12
First Quarter

Hourly Weather History & Observations

Time (CDT) Temp. Dew Point Humidity Pressure Visibility Wind Dir Wind Speed Gust Speed Precip Events Conditions
12:14 AM 60.8 °F 57.2 °F 88% 30.17 in 10.0 mi SSW 4.6 mph - N/A   Clear
12:34 AM 60.8 °F 57.2 °F 88% 30.17 in 10.0 mi SSW 4.6 mph - N/A   Clear
12:54 AM 60.8 °F 57.2 °F 88% 30.17 in 10.0 mi SSW 3.5 mph - N/A   Clear
1:14 AM 60.8 °F 57.2 °F 88% 30.16 in 10.0 mi SSW 4.6 mph - N/A   Clear
1:34 AM 60.8 °F 57.2 °F 88% 30.16 in 10.0 mi SSW 4.6 mph - N/A   Clear
1:54 AM 60.8 °F 57.2 °F 88% 30.17 in 10.0 mi SSW 3.5 mph - N/A   Clear
2:14 AM 60.8 °F 57.2 °F 88% 30.16 in 10.0 mi SSW 3.5 mph - N/A   Mostly Cloudy
2:34 AM 60.8 °F 57.2 °F 88% 30.16 in 10.0 mi SSW 3.5 mph - N/A   Mostly Cloudy
2:54 AM 60.8 °F 57.2 °F 88% 30.16 in 10.0 mi SSW 5.8 mph - N/A   Mostly Cloudy
3:14 AM 60.8 °F 57.2 °F 88% 30.16 in 10.0 mi SSW 5.8 mph - N/A   Scattered Clouds
3:33 AM 59.0 °F 57.2 °F 94% 30.16 in 10.0 mi SSW 3.5 mph - N/A   Clear
3:54 AM 59.0 °F 57.2 °F 94% 30.16 in 10.0 mi South 5.8 mph - N/A   Clear
4:14 AM 57.2 °F 57.2 °F 100% 30.16 in 10.0 mi SSW 4.6 mph - N/A   Clear
4:33 AM 57.2 °F 57.2 °F 100% 30.16 in 10.0 mi Calm Calm - N/A   Clear
4:54 AM 57.2 °F 57.2 °F 100% 30.16 in 10.0 mi SSW 3.5 mph - N/A   Clear
5:14 AM 57.2 °F 57.2 °F 100% 30.16 in 10.0 mi SSW 6.9 mph - N/A   Clear
5:33 AM 57.2 °F 57.2 °F 100% 30.16 in 10.0 mi South 5.8 mph - N/A   Clear
5:54 AM 57.2 °F 55.4 °F 94% 30.16 in 10.0 mi South 5.8 mph - N/A   Clear
6:14 AM 57.2 °F 55.4 °F 94% 30.16 in 10.0 mi South 5.8 mph - N/A   Clear
6:34 AM 57.2 °F 55.4 °F 94% 30.16 in 10.0 mi SSW 5.8 mph - N/A   Clear
6:54 AM 57.2 °F 55.4 °F 94% 30.17 in 10.0 mi SSW 6.9 mph - N/A   Clear
7:14 AM 57.2 °F 55.4 °F 94% 30.17 in 10.0 mi SSW 8.1 mph - N/A   Clear
7:34 AM 59.0 °F 55.4 °F 88% 30.17 in 10.0 mi SSW 6.9 mph - N/A   Scattered Clouds
7:54 AM 60.8 °F 57.2 °F 88% 30.16 in 10.0 mi SSW 8.1 mph - N/A   Scattered Clouds
8:14 AM 60.8 °F 57.2 °F 88% 30.17 in 10.0 mi SSW 6.9 mph - N/A   Clear
8:34 AM 62.6 °F 57.2 °F 82% 30.16 in 10.0 mi SSW 8.1 mph - N/A   Clear
8:54 AM 64.4 °F 59.0 °F 83% 30.16 in 10.0 mi SSW 8.1 mph - N/A   Clear
9:14 AM 64.4 °F 60.8 °F 88% 30.16 in 10.0 mi SSW 8.1 mph - N/A   Clear
9:34 AM 66.2 °F 60.8 °F 83% 30.15 in 10.0 mi SSW 12.7 mph - N/A   Clear
9:54 AM 68.0 °F 60.8 °F 78% 30.15 in 10.0 mi SW 9.2 mph - N/A   Clear
10:14 AM 69.8 °F 62.6 °F 78% 30.15 in 10.0 mi SW 11.5 mph 17.3 mph N/A   Clear
10:34 AM 71.6 °F 62.6 °F 73% 30.15 in 10.0 mi SW 11.5 mph 16.1 mph N/A   Clear
10:54 AM 71.6 °F 62.6 °F 73% 30.15 in 10.0 mi SW 15.0 mph - N/A   Clear
11:14 AM 73.4 °F 62.6 °F 69% 30.15 in 10.0 mi SW 13.8 mph 19.6 mph N/A   Clear
11:34 AM 73.4 °F 62.6 °F 69% 30.15 in 10.0 mi SW 13.8 mph - N/A   Clear
11:54 AM 75.2 °F 62.6 °F 65% 30.14 in 10.0 mi SW 15.0 mph 19.6 mph N/A   Clear
12:14 PM 75.2 °F 62.6 °F 65% 30.14 in 10.0 mi SW 10.4 mph - N/A   Clear
12:34 PM 75.2 °F 64.4 °F 69% 30.13 in 10.0 mi SW 5.8 mph - N/A   Clear
12:54 PM 75.2 °F 62.6 °F 65% 30.13 in 10.0 mi SW 10.4 mph 18.4 mph N/A   Clear
1:14 PM 77.0 °F 64.4 °F 65% 30.12 in 10.0 mi SW 11.5 mph - N/A   Scattered Clouds
1:33 PM 78.8 °F 64.4 °F 61% 30.12 in 10.0 mi SW 12.7 mph 19.6 mph N/A   Clear
1:54 PM 78.8 °F 62.6 °F 57% 30.11 in 10.0 mi SSW 11.5 mph 19.6 mph N/A   Scattered Clouds
2:14 PM 77.0 °F 62.6 °F 61% 30.11 in 10.0 mi SSW 13.8 mph 18.4 mph N/A   Scattered Clouds
2:33 PM 78.8 °F 62.6 °F 57% 30.10 in 10.0 mi SW 13.8 mph 19.6 mph N/A   Scattered Clouds
2:54 PM 78.8 °F 64.4 °F 61% 30.10 in 10.0 mi SW 11.5 mph 16.1 mph N/A   Scattered Clouds
3:14 PM 78.8 °F 62.6 °F 57% 30.09 in 10.0 mi SSW 12.7 mph 17.3 mph N/A   Scattered Clouds
3:33 PM 78.8 °F 62.6 °F 57% 30.09 in 10.0 mi SSW 15.0 mph 19.6 mph N/A   Scattered Clouds
3:54 PM 78.8 °F 62.6 °F 57% 30.09 in 10.0 mi SSW 13.8 mph 20.7 mph N/A   Scattered Clouds
4:14 PM 78.8 °F 62.6 °F 57% 30.09 in 10.0 mi SW 10.4 mph 19.6 mph N/A   Scattered Clouds
4:34 PM 78.8 °F 62.6 °F 57% 30.09 in 10.0 mi SSW 12.7 mph 21.9 mph N/A   Scattered Clouds
4:54 PM 78.8 °F 62.6 °F 57% 30.08 in 10.0 mi SSW 11.5 mph 17.3 mph N/A   Scattered Clouds
5:14 PM 78.8 °F 64.4 °F 61% 30.08 in 10.0 mi SSW 12.7 mph 20.7 mph N/A   Scattered Clouds
5:34 PM 78.8 °F 62.6 °F 57% 30.08 in 10.0 mi SSW 11.5 mph 19.6 mph N/A   Clear
5:53 PM 77.0 °F 62.6 °F 61% 30.08 in 10.0 mi SSW 9.2 mph 16.1 mph N/A   Clear
6:14 PM 78.8 °F 62.6 °F 57% 30.08 in 10.0 mi SSW 10.4 mph 17.3 mph N/A   Scattered Clouds
6:34 PM 77.0 °F 62.6 °F 61% 30.08 in 10.0 mi SSW 10.4 mph 19.6 mph N/A   Scattered Clouds
6:53 PM 75.2 °F 62.6 °F 65% 30.08 in 10.0 mi SSW 9.2 mph 17.3 mph N/A   Clear
7:14 PM 75.2 °F 62.6 °F 65% 30.08 in 10.0 mi SSW 8.1 mph 17.3 mph N/A   Clear
7:34 PM 75.2 °F 60.8 °F 61% 30.08 in 10.0 mi SW 10.4 mph - N/A   Clear
7:53 PM 73.4 °F 60.8 °F 65% 30.08 in 10.0 mi SSW 9.2 mph 16.1 mph N/A   Clear
8:14 PM 73.4 °F 60.8 °F 65% 30.08 in 10.0 mi SSW 8.1 mph - N/A   Clear
8:34 PM 71.6 °F 60.8 °F 69% 30.08 in 10.0 mi SSW 5.8 mph - N/A   Clear
8:54 PM 71.6 °F 60.8 °F 69% 30.08 in 10.0 mi SSW 6.9 mph - N/A   Clear
9:14 PM 69.8 °F 60.8 °F 73% 30.09 in 10.0 mi SSW 5.8 mph - N/A   Clear
9:34 PM 69.8 °F 60.8 °F 73% 30.09 in 10.0 mi SSW 6.9 mph - N/A   Clear
9:54 PM 69.8 °F 60.8 °F 73% 30.09 in 10.0 mi SSW 6.9 mph - N/A   Clear
10:13 PM 68.0 °F 60.8 °F 78% 30.09 in 10.0 mi SSW 6.9 mph - N/A   Clear
10:34 PM 68.0 °F 60.8 °F 78% 30.08 in 10.0 mi SSW 6.9 mph - N/A   Clear
10:54 PM 68.0 °F 60.8 °F 78% 30.08 in 10.0 mi SW 9.2 mph - N/A   Clear
11:13 PM 66.2 °F 59.0 °F 78% 30.08 in 10.0 mi SW 10.4 mph - N/A   Clear
11:34 PM 66.2 °F 59.0 °F 78% 30.08 in 10.0 mi SSW 8.1 mph - N/A   Clear
11:54 PM 66.2 °F 59.0 °F 78% 30.09 in 10.0 mi SSW 8.1 mph - N/A   Clear